Regional Weather Roundup
Issued by NWS

Home | Current Version | Previous Version | Graphics & Text | Print | Product List | Glossary On
Versions: 1 2 3 4 5 6 7 8 9 10 11 12 13 14 15 16 17 18 19 20 21 22 23 24 25 26 27 28 29 30 31 32 33 34 35 36 37 38 39 40 41 42 43 44 45 46 47 48 49 50
000
ASUS43 KFSD 020210
RWRSD

WEATHER ROUNDUP FOR SOUTH DAKOTA
NATIONAL WEATHER SERVICE SIOUX FALLS SD
900 PM CDT MON SEP 01 2014

NOTE: "FAIR" INDICATES FEW OR NO CLOUDS BELOW 12,000 FEET WITH NO
SIGNIFICANT WEATHER AND/OR OBSTRUCTIONS TO VISIBILITY.


SDZ001>005-009-010-012>017-020300-
NORTHWEST AND NORTH CENTRAL SOUTH DAKOTA

CITY           SKY/WX    TMP DP  RH WIND       PRES   REMARKS
BUFFALO          N/A     61  46  57 E3        29.87R
FAITH            N/A     54  51  90 N8        29.92F
MOBRIDGE       CLOUDY    62  53  72 W17G25    29.87R
$$

SDZ012>016-024>037-041>051-057-063-072>074-020300-
SOUTHWEST AND SOUTH CENTRAL SOUTH DAKOTA

CITY           SKY/WX    TMP DP  RH WIND       PRES   REMARKS
RAPID CTY ARPT PTCLDY    54  50  86 CALM      29.97R
PIERRE         CLOUDY    62  52  69 N5        29.89R
CUSTER         CLEAR     50  38  63 W5        30.06R
ELLSWORTH AFB  PTCLDY    59  49  68 NW3       29.96R
PHILIP         MOCLDY    62  54  74 CALM      29.92R
PINE RIDGE     CLEAR     54  52  93 MISG      29.99R
WINNER         LGT RAIN  59  56  89 W12       29.93R
$$

SDZ004>011-016>023-039-040-020300-
NORTHEAST SOUTH DAKOTA

CITY           SKY/WX    TMP DP  RH WIND       PRES   REMARKS
ABERDEEN       MOCLDY    61  56  83 W6        29.84R
WATERTOWN      MOCLDY    60  52  74 SW9       29.85R
SISSETON         N/A     63  58  83 SW7       29.80R
$$

SDZ017-020-022-023-036>040-048>070-020300-
SOUTHEAST SOUTH DAKOTA

CITY           SKY/WX    TMP DP  RH WIND       PRES   REMARKS
SIOUX FALLS    MOCLDY    66  56  70 CALM      29.86R
HURON          CLOUDY    61  55  81 SW10      29.87R
CHAMBERLAIN    CLOUDY    59  58  94 CALM      29.92R
MITCHELL       LGT RAIN  63  54  72 W16G23    29.91R
YANKTON        PTCLDY    66  55  68 N3        29.85S
$$

ABBREVIATIONS USED IN REMARKS
   TC - TEMPERATURE IN CELSIUS
  WCI - WIND CHILL INDEX
   HX - HEAT INDEX
  VSB - VISIBILITY



USA.gov is the U.S. government's official web portal to all federal, state and local government web resources and services.